NIMIQ 6

Last updated on Fri Jul 10 2026 00:03:03 GMT+0000 (Coordinated Universal Time)

1 38342U 12026A 26190.26568480 -.00000160 00000+0 00000+0 0 9994 2 38342 0.0201 307.7791 0002579 165.3119 178.6511 1.00270240 50637
UTC large
Height (km)
Speed (km/s)
/
Latitude / Longitude
Inclination (degrees)
Orbital Period (minutes)
Azimuth
Elevation
Range (km)
Doppler Factor

Next 0 passes for location: London (51.5072 / 0.1276)

No passes found over London.
NIMIQ 6